Location: Newark
(48.8604°N, 2.3376°E)
Time: 14:00:33
(UTC+00:00)

N. Korean satellite - Pass Details

Date: 27 September 2021
Orbit: 450 x 495 km, 97.3° (Epoch: 19 October)

Event Time Altitude Azimuth Distance (km) Brightness Sun altitude
Rises 04:08:14 0° 30° (NNE) 2,534 11.0 -16.5°
Reaches altitude 10° 04:11:02 10° 55° (NE) 1,660 10.4 -16.0°
Maximum altitude 04:13:07 15° 91° (E) 1,388 9.9 -15.7°
Drops below altitude 10° 04:15:14 10° 127° (SE) 1,666 9.8 -15.3°
Sets 04:18:02 0° 152° (SSE) 2,549 10.4 -14.9°
